Time,TemperatureF,DewpointF,PressureIn,WindDirection,WindDirectionDegrees,WindSpeedMPH,WindSpeedGustMPH,Humidity,HourlyPrecipIn,Conditions,Clouds,dailyrainin,SoftwareType,DateUTC
2013-04-04 00:00:00,55.6,53.3,29.72,SE,135,2.5,2.5,92,0.00,,,0.00,WUHU216HW,2013-04-04 07:00:00,
2013-04-04 00:05:00,55.6,53.3,29.72,SSE,158,1.6,2.5,92,0.00,,,0.00,WUHU216HW,2013-04-04 07:05:00,
2013-04-04 00:10:00,55.6,53.3,29.72,SW,225,1.1,2.5,92,0.00,,,0.00,WUHU216HW,2013-04-04 07:10:00,
2013-04-04 00:15:00,55.6,53.3,29.72,WSW,248,0.4,1.6,92,0.00,,,0.00,WUHU216HW,2013-04-04 07:15:00,
2013-04-04 00:20:00,55.6,53.3,29.72,WSW,248,1.3,2.7,92,0.00,,,0.00,WUHU216HW,2013-04-04 07:20:00,
2013-04-04 00:25:00,55.6,53.3,29.72,West,270,0.4,2.7,92,0.00,,,0.00,WUHU216HW,2013-04-04 07:25:00,
2013-04-04 00:30:00,55.6,53.3,29.72,ENE,68,0.0,1.3,92,0.00,,,0.00,WUHU216HW,2013-04-04 07:30:00,
2013-04-04 00:35:00,55.6,53.3,29.72,NW,315,1.1,1.1,92,0.00,,,0.00,WUHU216HW,2013-04-04 07:35:00,
2013-04-04 00:40:00,55.6,53.3,29.73,SSE,158,0.7,2.0,92,0.00,,,0.00,WUHU216HW,2013-04-04 07:40:00,
2013-04-04 00:45:00,55.8,53.5,29.73,SSW,203,2.2,2.5,92,0.00,,,0.00,WUHU216HW,2013-04-04 07:45:00,
2013-04-04 00:50:00,55.8,53.5,29.73,SW,225,1.3,3.1,92,0.00,,,0.00,WUHU216HW,2013-04-04 07:50:00,
2013-04-04 00:55:00,55.6,53.3,29.73,WSW,248,0.0,3.1,92,0.00,,,0.00,WUHU216HW,2013-04-04 07:55:00,
2013-04-04 01:00:00,55.4,53.1,29.73,WNW,293,0.0,1.3,92,0.00,,,0.00,WUHU216HW,2013-04-04 08:00:00,
2013-04-04 01:05:00,55.1,52.7,29.73,West,270,0.4,1.1,92,0.00,,,0.00,WUHU216HW,2013-04-04 08:05:00,
2013-04-04 01:10:00,55.1,52.7,29.73,WNW,293,0.0,1.1,92,0.00,,,0.00,WUHU216HW,2013-04-04 08:10:00,
2013-04-04 01:15:00,55.1,52.7,29.73,NW,315,0.4,0.9,92,0.00,,,0.00,WUHU216HW,2013-04-04 08:15:00,
2013-04-04 01:20:00,55.1,52.7,29.74,WSW,248,0.4,1.1,92,0.00,,,0.00,WUHU216HW,2013-04-04 08:20:00,
2013-04-04 01:25:00,55.1,52.7,29.73,WSW,248,0.0,1.1,92,0.00,,,0.00,WUHU216HW,2013-04-04 08:25:00,
2013-04-04 01:30:00,54.9,52.6,29.73,ENE,68,0.0,0.9,92,0.00,,,0.00,WUHU216HW,2013-04-04 08:30:00,
2013-04-04 01:35:00,54.9,52.6,29.73,East,90,0.9,1.6,92,0.00,,,0.00,WUHU216HW,2013-04-04 08:35:00,
2013-04-04 01:40:00,54.7,52.8,29.74,ENE,68,0.0,1.6,93,0.00,,,0.00,WUHU216HW,2013-04-04 08:40:00,
2013-04-04 01:45:00,54.9,52.9,29.73,NNE,23,2.7,2.7,93,0.00,,,0.00,WUHU216HW,2013-04-04 08:45:00,
2013-04-04 01:50:00,54.9,53.2,29.73,NE,45,1.1,3.4,94,0.00,,,0.00,WUHU216HW,2013-04-04 08:50:00,
2013-04-04 01:55:00,54.9,53.2,29.73,ESE,113,2.9,3.8,94,0.00,,,0.00,WUHU216HW,2013-04-04 08:55:00,
2013-04-04 02:00:00,55.1,53.4,29.73,ENE,68,0.9,4.7,94,0.00,,,0.00,WUHU216HW,2013-04-04 09:00:00,
2013-04-04 02:05:00,55.1,53.4,29.74,SSE,158,2.0,4.7,94,0.00,,,0.00,WUHU216HW,2013-04-04 09:05:00,
2013-04-04 02:10:00,55.1,53.4,29.74,SSW,203,1.1,2.7,94,0.00,,,0.00,WUHU216HW,2013-04-04 09:10:00,
2013-04-04 02:15:00,55.3,53.6,29.74,SSE,158,2.9,2.9,94,0.00,,,0.00,WUHU216HW,2013-04-04 09:15:00,
2013-04-04 02:20:00,55.3,53.6,29.74,SSW,203,2.5,3.6,94,0.00,,,0.00,WUHU216HW,2013-04-04 09:20:00,
2013-04-04 02:25:00,55.3,53.3,29.75,SW,225,1.6,3.6,93,0.00,,,0.00,WUHU216HW,2013-04-04 09:25:00,
2013-04-04 02:30:00,55.3,53.3,29.75,SW,225,3.4,4.0,93,0.00,,,0.00,WUHU216HW,2013-04-04 09:30:00,
2013-04-04 02:35:00,55.3,53.3,29.75,WSW,248,3.4,4.0,93,0.00,,,0.00,WUHU216HW,2013-04-04 09:35:00,
2013-04-04 02:40:00,55.3,53.3,29.74,WSW,248,2.9,4.0,93,0.00,,,0.00,WUHU216HW,2013-04-04 09:40:00,
2013-04-04 02:45:00,55.3,53.3,29.74,SW,225,0.7,4.0,93,0.00,,,0.00,WUHU216HW,2013-04-04 09:45:00,
2013-04-04 02:50:00,55.3,53.3,29.74,South,180,0.7,3.4,93,0.00,,,0.00,WUHU216HW,2013-04-04 09:50:00,
2013-04-04 02:55:00,55.3,53.3,29.74,WSW,248,5.6,5.6,93,0.00,,,0.00,WUHU216HW,2013-04-04 09:55:00,
2013-04-04 03:00:00,55.1,53.1,29.75,SSW,203,4.0,5.6,93,0.00,,,0.00,WUHU216HW,2013-04-04 10:00:00,
2013-04-04 03:05:00,55.1,53.1,29.74,WNW,293,0.7,5.1,93,0.00,,,0.00,WUHU216HW,2013-04-04 10:05:00,
2013-04-04 03:10:00,55.1,53.1,29.74,WSW,248,1.1,3.1,93,0.00,,,0.00,WUHU216HW,2013-04-04 10:10:00,
2013-04-04 03:15:00,55.1,53.1,29.74,West,270,0.7,2.0,93,0.00,,,0.00,WUHU216HW,2013-04-04 10:15:00,
2013-04-04 03:20:00,55.1,53.1,29.74,WSW,248,1.3,2.2,93,0.00,,,0.00,WUHU216HW,2013-04-04 10:20:00,
2013-04-04 03:25:00,55.1,53.1,29.74,SW,225,2.0,2.5,93,0.00,,,0.00,WUHU216HW,2013-04-04 10:25:00,
2013-04-04 03:30:00,55.1,53.1,29.73,SW,225,0.9,3.4,93,0.00,,,0.00,WUHU216HW,2013-04-04 10:30:00,
2013-04-04 03:35:00,55.1,52.7,29.72,SW,225,1.6,3.4,92,0.00,,,0.00,WUHU216HW,2013-04-04 10:35:00,
2013-04-04 03:40:00,55.1,52.7,29.72,SSW,203,0.7,1.8,92,0.00,,,0.00,WUHU216HW,2013-04-04 10:40:00,
2013-04-04 03:45:00,55.1,52.7,29.72,SW,225,1.1,1.8,92,0.00,,,0.00,WUHU216HW,2013-04-04 10:45:00,
2013-04-04 03:50:00,55.1,52.7,29.72,SW,225,0.0,1.8,92,0.00,,,0.00,WUHU216HW,2013-04-04 10:50:00,
2013-04-04 03:55:00,55.1,52.7,29.72,ESE,113,1.1,1.3,92,0.00,,,0.00,WUHU216HW,2013-04-04 10:55:00,
2013-04-04 04:00:00,55.1,52.7,29.72,SW,225,0.9,1.3,92,0.00,,,0.00,WUHU216HW,2013-04-04 11:00:00,
2013-04-04 04:05:00,55.1,52.7,29.72,WSW,248,0.4,1.1,92,0.00,,,0.00,WUHU216HW,2013-04-04 11:05:00,
2013-04-04 04:11:00,55.1,52.7,29.72,WSW,248,0.7,1.1,92,0.00,,,0.00,WUHU216HW,2013-04-04 11:11:00,
2013-04-04 04:15:00,54.9,52.6,29.72,WSW,248,1.8,1.8,92,0.00,,,0.00,WUHU216HW,2013-04-04 11:15:00,
2013-04-04 04:21:00,54.7,52.4,29.72,North,0,0.9,2.0,92,0.00,,,0.00,WUHU216HW,2013-04-04 11:21:00,
2013-04-04 04:25:00,54.5,52.2,29.71,West,270,1.3,2.2,92,0.00,,,0.00,WUHU216HW,2013-04-04 11:25:00,
2013-04-04 04:30:00,54.4,52.0,29.71,WSW,248,0.9,2.2,92,0.00,,,0.00,WUHU216HW,2013-04-04 11:30:00,
2013-04-04 04:35:00,54.4,52.0,29.71,NW,315,0.9,1.6,92,0.00,,,0.00,WUHU216HW,2013-04-04 11:35:00,
2013-04-04 04:40:00,54.4,52.0,29.71,NNW,338,0.4,1.3,92,0.00,,,0.00,WUHU216HW,2013-04-04 11:40:00,
2013-04-04 04:45:00,54.4,52.0,29.71,NNW,338,0.2,1.1,92,0.00,,,0.00,WUHU216HW,2013-04-04 11:45:00,
2013-04-04 04:51:00,54.4,52.0,29.70,NNE,23,1.1,1.3,92,0.00,,,0.00,WUHU216HW,2013-04-04 11:51:00,
2013-04-04 04:56:00,54.4,52.0,29.70,NW,315,0.0,1.3,92,0.00,,,0.00,WUHU216HW,2013-04-04 11:56:00,
2013-04-04 05:01:00,54.4,52.0,29.70,NE,45,1.1,1.3,92,0.00,,,0.00,WUHU216HW,2013-04-04 12:01:00,
2013-04-04 05:06:00,54.4,52.0,29.70,ENE,68,0.0,1.3,92,0.00,,,0.00,WUHU216HW,2013-04-04 12:06:00,
2013-04-04 05:11:00,54.4,52.0,29.70,SW,225,0.0,1.1,92,0.00,,,0.00,WUHU216HW,2013-04-04 12:11:00,
2013-04-04 05:16:00,54.5,52.2,29.71,SW,225,0.0,1.1,92,0.00,,,0.00,WUHU216HW,2013-04-04 12:16:00,
2013-04-04 05:21:00,54.7,52.4,29.71,WNW,293,0.0,0.2,92,0.00,,,0.00,WUHU216HW,2013-04-04 12:21:00,
2013-04-04 05:26:00,54.7,52.4,29.70,NW,315,0.0,0.0,92,0.00,,,0.00,WUHU216HW,2013-04-04 12:26:00,
2013-04-04 05:31:00,54.7,52.4,29.71,ESE,113,0.0,1.3,92,0.00,,,0.00,WUHU216HW,2013-04-04 12:31:00,
2013-04-04 05:36:00,54.7,52.4,29.72,WSW,248,1.1,1.6,92,0.00,,,0.00,WUHU216HW,2013-04-04 12:36:00,
2013-04-04 05:41:00,54.7,52.4,29.72,WSW,248,0.4,1.6,92,0.00,,,0.00,WUHU216HW,2013-04-04 12:41:00,
2013-04-04 05:46:00,54.7,52.4,29.73,SW,225,1.1,1.1,92,0.00,,,0.00,WUHU216HW,2013-04-04 12:46:00,
2013-04-04 05:51:00,54.7,52.4,29.73,West,270,1.1,1.8,92,0.00,,,0.00,WUHU216HW,2013-04-04 12:51:00,
2013-04-04 05:56:00,54.7,52.4,29.73,West,270,0.4,2.0,92,0.00,,,0.00,WUHU216HW,2013-04-04 12:56:00,
2013-04-04 06:01:00,54.7,52.4,29.73,West,270,0.0,5.4,92,0.00,,,0.00,WUHU216HW,2013-04-04 13:01:00,
2013-04-04 06:06:00,54.4,52.0,29.73,West,270,0.4,5.4,92,0.00,,,0.00,WUHU216HW,2013-04-04 13:06:00,
2013-04-04 06:11:00,54.4,52.0,29.73,NW,315,0.7,1.8,92,0.00,,,0.00,WUHU216HW,2013-04-04 13:11:00,
2013-04-04 06:16:00,54.4,52.0,29.73,WNW,293,1.8,1.8,92,0.00,,,0.00,WUHU216HW,2013-04-04 13:16:00,
2013-04-04 06:21:00,54.0,51.7,29.73,West,270,0.0,1.8,92,0.00,,,0.00,WUHU216HW,2013-04-04 13:21:00,
2013-04-04 06:26:00,54.0,51.7,29.73,WNW,293,0.4,1.8,92,0.00,,,0.00,WUHU216HW,2013-04-04 13:26:00,
2013-04-04 06:31:00,54.0,51.7,29.73,WSW,248,1.1,1.8,92,0.00,,,0.00,WUHU216HW,2013-04-04 13:31:00,
2013-04-04 06:36:00,54.0,51.7,29.73,West,270,0.0,1.1,92,0.00,,,0.00,WUHU216HW,2013-04-04 13:36:00,
2013-04-04 06:41:00,54.0,51.7,29.73,NNW,338,0.0,1.1,92,0.00,,,0.00,WUHU216HW,2013-04-04 13:41:00,
2013-04-04 06:46:00,54.0,51.7,29.72,NE,45,0.0,1.1,92,0.00,,,0.00,WUHU216HW,2013-04-04 13:46:00,
2013-04-04 06:51:00,54.0,51.7,29.73,WSW,248,0.2,1.1,92,0.00,,,0.00,WUHU216HW,2013-04-04 13:51:00,
2013-04-04 06:56:00,54.2,51.8,29.74,West,270,0.9,1.3,92,0.00,,,0.00,WUHU216HW,2013-04-04 13:56:00,
2013-04-04 07:01:00,54.2,52.2,29.75,North,0,1.8,4.3,93,0.00,,,0.00,WUHU216HW,2013-04-04 14:01:00,
2013-04-04 07:06:00,54.2,52.2,29.75,West,270,1.1,4.3,93,0.00,,,0.00,WUHU216HW,2013-04-04 14:06:00,
2013-04-04 07:11:00,54.2,52.2,29.75,West,270,2.0,2.0,93,0.00,,,0.00,WUHU216HW,2013-04-04 14:11:00,
2013-04-04 07:16:00,54.4,52.4,29.75,WSW,248,1.8,2.0,93,0.00,,,0.00,WUHU216HW,2013-04-04 14:16:00,
2013-04-04 07:21:00,54.4,52.4,29.76,West,270,0.2,2.0,93,0.00,,,0.00,WUHU216HW,2013-04-04 14:21:00,
2013-04-04 07:26:00,54.4,52.4,29.76,WSW,248,1.6,2.5,93,0.00,,,0.00,WUHU216HW,2013-04-04 14:26:00,
2013-04-04 07:31:00,54.4,52.4,29.76,WNW,293,1.1,2.5,93,0.00,,,0.00,WUHU216HW,2013-04-04 14:31:00,
2013-04-04 07:36:00,54.2,52.2,29.76,West,270,1.3,2.5,93,0.00,,,0.00,WUHU216HW,2013-04-04 14:36:00,
2013-04-04 07:42:00,54.0,52.0,29.76,NW,315,3.1,3.1,93,0.00,,,0.00,WUHU216HW,2013-04-04 14:42:00,
2013-04-04 07:47:00,54.0,52.0,29.76,West,270,1.8,3.1,93,0.00,,,0.00,WUHU216HW,2013-04-04 14:47:00,
2013-04-04 07:52:00,54.0,52.0,29.77,WNW,293,1.6,2.2,93,0.00,,,0.00,WUHU216HW,2013-04-04 14:52:00,
2013-04-04 07:57:00,54.0,52.0,29.77,WNW,293,0.4,1.8,93,0.00,,,0.00,WUHU216HW,2013-04-04 14:57:00,
2013-04-04 08:02:00,54.0,52.0,29.77,North,0,0.4,1.8,93,0.00,,,0.00,WUHU216HW,2013-04-04 15:02:00,
2013-04-04 08:07:00,54.0,52.0,29.77,WSW,248,1.1,2.0,93,0.00,,,0.00,WUHU216HW,2013-04-04 15:07:00,
2013-04-04 08:12:00,54.0,52.0,29.77,West,270,1.1,2.0,93,0.00,,,0.00,WUHU216HW,2013-04-04 15:12:00,
2013-04-04 08:17:00,54.0,52.0,29.77,West,270,0.7,2.2,93,0.00,,,0.00,WUHU216HW,2013-04-04 15:17:00,
2013-04-04 08:22:00,54.0,52.0,29.77,NW,315,1.3,2.9,93,0.00,,,0.00,WUHU216HW,2013-04-04 15:22:00,
2013-04-04 08:27:00,54.0,52.0,29.77,WNW,293,0.7,2.9,93,0.00,,,0.00,WUHU216HW,2013-04-04 15:27:00,
2013-04-04 08:32:00,54.2,52.2,29.77,SSW,203,0.7,2.5,93,0.00,,,0.00,WUHU216HW,2013-04-04 15:32:00,
2013-04-04 08:37:00,54.4,52.4,29.76,NW,315,0.0,2.5,93,0.00,,,0.00,WUHU216HW,2013-04-04 15:37:00,
2013-04-04 08:42:00,54.4,52.4,29.76,North,0,0.7,2.2,93,0.00,,,0.00,WUHU216HW,2013-04-04 15:42:00,
2013-04-04 08:47:00,54.7,52.8,29.76,North,0,0.4,2.2,93,0.00,,,0.00,WUHU216HW,2013-04-04 15:47:00,
2013-04-04 08:52:00,54.5,52.6,29.76,NE,45,0.0,2.7,93,0.00,,,0.00,WUHU216HW,2013-04-04 15:52:00,
2013-04-04 08:57:00,54.5,52.2,29.76,East,90,0.2,2.7,92,0.00,,,0.00,WUHU216HW,2013-04-04 15:57:00,
2013-04-04 09:02:00,54.7,52.4,29.76,ENE,68,2.7,2.7,92,0.00,,,0.00,WUHU216HW,2013-04-04 16:02:00,
2013-04-04 09:07:00,54.7,52.4,29.76,ENE,68,0.0,3.4,92,0.00,,,0.00,WUHU216HW,2013-04-04 16:07:00,
2013-04-04 09:12:00,55.1,52.7,29.76,WSW,248,0.0,3.4,92,0.00,,,0.00,WUHU216HW,2013-04-04 16:12:00,
2013-04-04 09:17:00,55.3,52.9,29.76,East,90,2.5,2.5,92,0.00,,,0.00,WUHU216HW,2013-04-04 16:17:00,
2013-04-04 09:22:00,55.4,52.8,29.77,South,180,1.8,2.9,91,0.00,,,0.00,WUHU216HW,2013-04-04 16:22:00,
2013-04-04 09:27:00,55.6,53.3,29.77,SSE,158,1.8,2.9,92,0.00,,,0.00,WUHU216HW,2013-04-04 16:27:00,
2013-04-04 09:32:00,56.0,53.4,29.77,ESE,113,2.0,2.7,91,0.00,,,0.00,WUHU216HW,2013-04-04 16:32:00,
2013-04-04 09:37:00,56.2,53.6,29.77,SSE,158,1.1,3.1,91,0.00,,,0.00,WUHU216HW,2013-04-04 16:37:00,
2013-04-04 09:42:00,56.5,53.9,29.76,SSW,203,1.6,4.7,91,0.00,,,0.00,WUHU216HW,2013-04-04 16:42:00,
2013-04-04 09:47:00,56.7,54.1,29.77,SE,135,2.7,4.7,91,0.00,,,0.00,WUHU216HW,2013-04-04 16:47:00,
2013-04-04 09:52:00,57.1,54.2,29.77,West,270,0.4,4.0,90,0.00,,,0.00,WUHU216HW,2013-04-04 16:52:00,
2013-04-04 09:57:00,57.2,54.4,29.77,SW,225,1.1,2.5,90,0.00,,,0.00,WUHU216HW,2013-04-04 16:57:00,
2013-04-04 10:02:00,57.2,54.4,29.77,SSW,203,1.8,2.2,90,0.00,,,0.00,WUHU216HW,2013-04-04 17:02:00,
2013-04-04 10:07:00,57.4,54.2,29.77,SSE,158,1.8,4.0,89,0.00,,,0.00,WUHU216HW,2013-04-04 17:07:00,
2013-04-04 10:12:00,57.6,54.4,29.77,SSE,158,0.4,4.0,89,0.00,,,0.00,WUHU216HW,2013-04-04 17:12:00,
2013-04-04 10:17:00,57.8,54.5,29.77,SE,135,1.8,3.4,89,0.00,,,0.00,WUHU216HW,2013-04-04 17:17:00,
2013-04-04 10:22:00,58.0,54.7,29.77,SSW,203,0.9,3.4,89,0.00,,,0.00,WUHU216HW,2013-04-04 17:22:00,
2013-04-04 10:27:00,58.5,55.6,29.77,WSW,248,1.3,2.9,90,0.00,,,0.00,WUHU216HW,2013-04-04 17:27:00,
2013-04-04 10:32:00,58.5,55.0,29.78,WNW,293,0.4,3.4,88,0.00,,,0.00,WUHU216HW,2013-04-04 17:32:00,
2013-04-04 10:37:00,58.7,55.2,29.78,WSW,248,4.0,4.0,88,0.00,,,0.00,WUHU216HW,2013-04-04 17:37:00,
2013-04-04 10:42:00,58.9,55.4,29.77,WSW,248,4.0,4.7,88,0.00,,,0.00,WUHU216HW,2013-04-04 17:42:00,
2013-04-04 10:48:00,59.4,55.9,29.78,WSW,248,2.0,4.7,88,0.00,,,0.00,WUHU216HW,2013-04-04 17:48:00,
2013-04-04 10:52:00,59.8,55.9,29.78,South,180,2.5,4.0,87,0.00,,,0.00,WUHU216HW,2013-04-04 17:52:00,
2013-04-04 10:57:00,60.1,56.0,29.78,SW,225,0.4,4.0,86,0.00,,,0.00,WUHU216HW,2013-04-04 17:57:00,
2013-04-04 11:03:00,60.1,55.6,29.78,SW,225,4.0,4.5,85,0.00,,,0.00,WUHU216HW,2013-04-04 18:03:00,
2013-04-04 11:08:00,60.1,55.6,29.78,SW,225,1.8,5.1,85,0.00,,,0.00,WUHU216HW,2013-04-04 18:08:00,
2013-04-04 11:12:00,60.1,55.3,29.78,WSW,248,2.0,6.3,84,0.00,,,0.00,WUHU216HW,2013-04-04 18:12:00,
2013-04-04 11:17:00,59.9,55.4,29.78,WSW,248,2.7,6.5,85,0.00,,,0.00,WUHU216HW,2013-04-04 18:17:00,
2013-04-04 11:22:00,59.8,55.3,29.78,WSW,248,2.2,6.5,85,0.00,,,0.00,WUHU216HW,2013-04-04 18:22:00,
2013-04-04 11:27:00,59.4,54.5,29.78,South,180,2.0,5.6,84,0.00,,,0.00,WUHU216HW,2013-04-04 18:27:00,
2013-04-04 11:32:00,59.4,54.9,29.78,NNW,338,1.3,3.8,85,0.00,,,0.00,WUHU216HW,2013-04-04 18:32:00,
2013-04-04 11:37:00,59.4,54.5,29.78,WNW,293,0.4,3.8,84,0.00,,,0.00,WUHU216HW,2013-04-04 18:37:00,
2013-04-04 11:42:00,59.4,54.9,29.78,SW,225,5.6,5.6,85,0.00,,,0.00,WUHU216HW,2013-04-04 18:42:00,
2013-04-04 11:48:00,59.6,55.1,29.78,West,270,2.5,5.6,85,0.00,,,0.00,WUHU216HW,2013-04-04 18:48:00,
2013-04-04 11:52:00,60.1,55.6,29.78,WSW,248,2.9,5.6,85,0.00,,,0.00,WUHU216HW,2013-04-04 18:52:00,
2013-04-04 11:57:00,60.1,55.0,29.77,WSW,248,1.1,4.0,83,0.00,,,0.00,WUHU216HW,2013-04-04 18:57:00,
2013-04-04 12:02:00,60.3,55.4,29.77,SSW,203,1.1,5.1,84,0.00,,,0.00,WUHU216HW,2013-04-04 19:02:00,
2013-04-04 12:07:00,60.3,55.2,29.76,SW,225,1.6,5.1,83,0.00,,,0.00,WUHU216HW,2013-04-04 19:07:00,
2013-04-04 12:12:00,60.5,55.4,29.76,NNE,23,0.7,3.8,83,0.00,,,0.00,WUHU216HW,2013-04-04 19:12:00,
2013-04-04 12:17:00,60.8,56.0,29.76,SW,225,2.9,5.1,84,0.00,,,0.00,WUHU216HW,2013-04-04 19:17:00,
2013-04-04 12:22:00,61.6,56.3,29.76,West,270,1.8,5.1,83,0.00,,,0.00,WUHU216HW,2013-04-04 19:22:00,
2013-04-04 12:27:00,62.5,57.3,29.75,SE,135,4.7,4.7,83,0.00,,,0.00,WUHU216HW,2013-04-04 19:27:00,
2013-04-04 12:32:00,63.0,57.1,29.75,SW,225,2.0,4.7,81,0.00,,,0.00,WUHU216HW,2013-04-04 19:32:00,
2013-04-04 12:37:00,63.2,57.3,29.75,South,180,3.6,5.1,81,0.00,,,0.00,WUHU216HW,2013-04-04 19:37:00,
2013-04-04 12:42:00,63.2,56.5,29.75,West,270,1.1,5.6,79,0.00,,,0.00,WUHU216HW,2013-04-04 19:42:00,
2013-04-04 12:47:00,62.8,56.2,29.75,WSW,248,2.0,5.6,79,0.00,,,0.00,WUHU216HW,2013-04-04 19:47:00,
2013-04-04 12:52:00,62.6,56.3,29.74,SW,225,6.0,6.0,80,0.00,,,0.00,WUHU216HW,2013-04-04 19:52:00,
2013-04-04 12:57:00,63.0,56.7,29.74,SSE,158,2.5,6.7,80,0.00,,,0.00,WUHU216HW,2013-04-04 19:57:00,
2013-04-04 13:03:00,63.4,56.7,29.74,SSW,203,4.7,6.7,79,0.00,,,0.00,WUHU216HW,2013-04-04 20:03:00,
2013-04-04 13:08:00,63.2,56.2,29.74,North,0,1.6,4.7,78,0.00,,,0.00,WUHU216HW,2013-04-04 20:08:00,
2013-04-04 13:13:00,63.0,55.6,29.74,WSW,248,1.6,6.9,77,0.00,,,0.00,WUHU216HW,2013-04-04 20:13:00,
2013-04-04 13:18:00,62.5,55.1,29.73,West,270,3.4,6.9,77,0.00,,,0.00,WUHU216HW,2013-04-04 20:18:00,
2013-04-04 13:23:00,62.3,55.6,29.73,WSW,248,3.4,6.9,79,0.00,,,0.00,WUHU216HW,2013-04-04 20:23:00,
2013-04-04 13:28:00,62.6,55.6,29.73,North,0,1.6,6.9,78,0.00,,,0.00,WUHU216HW,2013-04-04 20:28:00,
2013-04-04 13:33:00,62.5,55.4,29.73,WSW,248,4.7,5.4,78,0.00,,,0.00,WUHU216HW,2013-04-04 20:33:00,
2013-04-04 13:38:00,62.6,55.3,29.73,SSE,158,2.5,6.3,77,0.00,,,0.00,WUHU216HW,2013-04-04 20:38:00,
2013-04-04 13:43:00,62.3,55.3,29.73,WSW,248,3.4,6.3,78,0.00,,,0.00,WUHU216HW,2013-04-04 20:43:00,
2013-04-04 13:48:00,62.3,55.6,29.73,NNW,338,4.5,6.0,79,0.00,,,0.00,WUHU216HW,2013-04-04 20:48:00,
2013-04-04 13:53:00,62.6,56.0,29.73,SW,225,3.1,4.5,79,0.00,,,0.00,WUHU216HW,2013-04-04 20:53:00,
2013-04-04 13:58:00,62.3,55.3,29.73,WSW,248,2.9,5.1,78,0.00,,,0.00,WUHU216HW,2013-04-04 20:58:00,
2013-04-04 14:03:00,62.5,55.8,29.73,WSW,248,2.7,7.2,79,0.00,,,0.00,WUHU216HW,2013-04-04 21:03:00,
2013-04-04 14:08:00,62.3,55.3,29.73,WNW,293,4.3,8.7,78,0.00,,,0.00,WUHU216HW,2013-04-04 21:08:00,
2013-04-04 14:13:00,61.9,55.4,29.72,WSW,248,3.6,8.7,79,0.00,,,0.00,WUHU216HW,2013-04-04 21:13:00,
2013-04-04 14:18:00,61.7,55.2,29.72,WSW,248,7.2,7.2,79,0.00,,,0.00,WUHU216HW,2013-04-04 21:18:00,
2013-04-04 14:23:00,61.9,55.4,29.72,WSW,248,4.3,7.2,79,0.00,,,0.00,WUHU216HW,2013-04-04 21:23:00,
2013-04-04 14:28:00,61.7,55.2,29.71,SW,225,4.7,7.2,79,0.00,,,0.00,WUHU216HW,2013-04-04 21:28:00,
2013-04-04 14:33:00,61.6,54.6,29.71,NW,315,4.5,6.5,78,0.00,,,0.00,WUHU216HW,2013-04-04 21:33:00,
2013-04-04 14:38:00,62.1,55.2,29.70,WSW,248,3.8,6.5,78,0.00,,,0.00,WUHU216HW,2013-04-04 21:38:00,
2013-04-04 14:43:00,62.8,55.1,29.70,SW,225,5.4,7.8,76,0.00,,,0.00,WUHU216HW,2013-04-04 21:43:00,
2013-04-04 14:48:00,62.8,55.1,29.70,WSW,248,6.3,8.1,76,0.00,,,0.00,WUHU216HW,2013-04-04 21:48:00,
2013-04-04 14:53:00,62.8,55.1,29.70,NNW,338,4.0,8.1,76,0.00,,,0.00,WUHU216HW,2013-04-04 21:53:00,
2013-04-04 14:58:00,62.3,54.5,29.69,NNW,338,3.4,6.3,76,0.00,,,0.00,WUHU216HW,2013-04-04 21:58:00,
2013-04-04 15:03:00,62.6,54.5,29.69,WNW,293,3.4,7.6,75,0.00,,,0.00,WUHU216HW,2013-04-04 22:03:00,
2013-04-04 15:08:00,62.6,54.5,29.69,WSW,248,4.3,7.6,75,0.00,,,0.00,WUHU216HW,2013-04-04 22:08:00,
2013-04-04 15:13:00,62.6,54.5,29.69,North,0,5.6,7.6,75,0.00,,,0.00,WUHU216HW,2013-04-04 22:13:00,
2013-04-04 15:18:00,62.6,54.5,29.69,WSW,248,4.7,7.6,75,0.00,,,0.00,WUHU216HW,2013-04-04 22:18:00,
2013-04-04 15:23:00,63.0,54.5,29.69,West,270,3.4,8.1,74,0.00,,,0.00,WUHU216HW,2013-04-04 22:23:00,
2013-04-04 15:28:00,63.2,55.1,29.69,West,270,3.8,8.1,75,0.00,,,0.00,WUHU216HW,2013-04-04 22:28:00,
2013-04-04 15:33:00,63.4,55.3,29.69,WSW,248,6.3,6.7,75,0.00,,,0.00,WUHU216HW,2013-04-04 22:33:00,
2013-04-04 15:38:00,63.4,55.3,29.69,WSW,248,3.1,6.7,75,0.00,,,0.00,WUHU216HW,2013-04-04 22:38:00,
2013-04-04 15:43:00,63.9,55.8,29.69,NNW,338,1.8,5.4,75,0.00,,,0.00,WUHU216HW,2013-04-04 22:43:00,
2013-04-04 15:48:00,64.3,55.8,29.68,WSW,248,4.9,6.5,74,0.00,,,0.00,WUHU216HW,2013-04-04 22:48:00,
2013-04-04 15:53:00,64.3,55.8,29.69,WSW,248,4.7,6.9,74,0.00,,,0.00,WUHU216HW,2013-04-04 22:53:00,
2013-04-04 15:58:00,64.3,55.8,29.69,SW,225,3.8,7.2,74,0.00,,,0.00,WUHU216HW,2013-04-04 22:58:00,
2013-04-04 16:03:00,63.9,55.4,29.69,SSW,203,2.9,7.2,74,0.00,,,0.00,WUHU216HW,2013-04-04 23:03:00,
2013-04-04 16:08:00,63.4,55.6,29.69,WSW,248,4.7,8.1,76,0.00,,,0.00,WUHU216HW,2013-04-04 23:08:00,
2013-04-04 16:13:00,63.0,55.3,29.69,West,270,3.4,8.1,76,0.00,,,0.00,WUHU216HW,2013-04-04 23:13:00,
2013-04-04 16:18:00,63.2,55.4,29.69,SSW,203,3.8,8.1,76,0.00,,,0.00,WUHU216HW,2013-04-04 23:18:00,
2013-04-04 16:23:00,63.0,55.3,29.68,NW,315,1.8,6.3,76,0.00,,,0.00,WUHU216HW,2013-04-04 23:23:00,
2013-04-04 16:28:00,63.4,55.6,29.69,South,180,2.9,6.5,76,0.00,,,0.00,WUHU216HW,2013-04-04 23:28:00,
2013-04-04 16:33:00,63.5,56.2,29.69,WSW,248,4.3,8.5,77,0.00,,,0.00,WUHU216HW,2013-04-04 23:33:00,
2013-04-04 16:38:00,63.4,55.6,29.69,West,270,5.8,8.7,76,0.00,,,0.00,WUHU216HW,2013-04-04 23:38:00,
2013-04-04 16:43:00,63.5,55.8,29.69,SW,225,5.4,8.7,76,0.00,,,0.00,WUHU216HW,2013-04-04 23:43:00,
2013-04-04 16:48:00,62.3,54.5,29.69,SW,225,4.5,8.5,76,0.00,,,0.00,WUHU216HW,2013-04-04 23:48:00,
2013-04-04 16:53:00,61.4,54.8,29.68,WSW,248,6.3,9.6,79,0.00,,,0.00,WUHU216HW,2013-04-04 23:53:00,
2013-04-04 16:58:00,60.7,54.5,29.68,WSW,248,5.6,9.6,80,0.00,,,0.00,WUHU216HW,2013-04-04 23:58:00,
2013-04-04 17:03:00,60.7,54.9,29.68,WSW,248,4.5,7.4,81,0.00,,,0.00,WUHU216HW,2013-04-05 00:03:00,
2013-04-04 17:08:00,60.3,54.6,29.68,South,180,3.4,8.5,81,0.00,,,0.00,WUHU216HW,2013-04-05 00:08:00,
2013-04-04 17:13:00,60.3,54.8,29.67,WSW,248,6.5,8.5,82,0.00,,,0.00,WUHU216HW,2013-04-05 00:13:00,
2013-04-04 17:18:00,60.5,55.0,29.66,SW,225,4.7,7.8,82,0.00,,,0.00,WUHU216HW,2013-04-05 00:18:00,
2013-04-04 17:23:00,61.4,55.5,29.66,WSW,248,6.7,8.7,81,0.00,,,0.00,WUHU216HW,2013-04-05 00:23:00,
2013-04-04 17:28:00,61.7,55.5,29.66,NW,315,2.9,8.7,80,0.00,,,0.00,WUHU216HW,2013-04-05 00:28:00,
2013-04-04 17:33:00,61.7,55.5,29.66,WSW,248,2.2,6.9,80,0.00,,,0.00,WUHU216HW,2013-04-05 00:33:00,
2013-04-04 17:38:00,61.9,55.4,29.66,North,0,1.6,6.9,79,0.00,,,0.00,WUHU216HW,2013-04-05 00:38:00,
2013-04-04 17:43:00,61.6,55.0,29.67,ENE,68,3.4,6.9,79,0.00,,,0.00,WUHU216HW,2013-04-05 00:43:00,
2013-04-04 17:48:00,60.8,55.1,29.67,WNW,293,5.4,6.3,81,0.00,,,0.00,WUHU216HW,2013-04-05 00:48:00,
2013-04-04 17:53:00,60.5,55.0,29.67,NNW,338,6.0,6.3,82,0.00,,,0.00,WUHU216HW,2013-04-05 00:53:00,
2013-04-04 17:58:00,59.9,55.1,29.68,South,180,5.1,6.3,84,0.00,,,0.00,WUHU216HW,2013-04-05 00:58:00,
2013-04-04 18:03:00,59.6,55.1,29.68,WSW,248,5.4,7.6,85,0.00,,,0.00,WUHU216HW,2013-04-05 01:03:00,
2013-04-04 18:08:00,59.4,54.9,29.68,WSW,248,2.7,7.6,85,0.00,,,0.00,WUHU216HW,2013-04-05 01:08:00,
2013-04-04 18:13:00,59.4,55.3,29.68,West,270,6.7,8.3,86,0.00,,,0.00,WUHU216HW,2013-04-05 01:13:00,
2013-04-04 18:18:00,59.0,55.2,29.68,WSW,248,6.0,8.3,87,0.00,,,0.00,WUHU216HW,2013-04-05 01:18:00,
2013-04-04 18:23:00,58.9,55.0,29.68,NW,315,6.9,8.1,87,0.00,,,0.00,WUHU216HW,2013-04-05 01:23:00,
2013-04-04 18:28:00,58.7,54.8,29.67,NW,315,2.0,8.5,87,0.00,,,0.00,WUHU216HW,2013-04-05 01:28:00,
2013-04-04 18:33:00,58.7,54.8,29.68,North,0,5.6,8.5,87,0.00,,,0.00,WUHU216HW,2013-04-05 01:33:00,
2013-04-04 18:38:00,58.5,55.0,29.67,WSW,248,3.1,8.1,88,0.00,,,0.00,WUHU216HW,2013-04-05 01:38:00,
2013-04-04 18:43:00,58.5,55.0,29.67,NW,315,1.3,5.6,88,0.00,,,0.00,WUHU216HW,2013-04-05 01:43:00,
2013-04-04 18:48:00,58.5,55.0,29.67,ENE,68,2.0,5.8,88,0.00,,,0.00,WUHU216HW,2013-04-05 01:48:00,
2013-04-04 18:53:00,58.5,55.0,29.68,WSW,248,2.7,5.8,88,0.00,,,0.00,WUHU216HW,2013-04-05 01:53:00,
2013-04-04 18:58:00,58.5,55.0,29.67,SSW,203,5.1,5.6,88,0.00,,,0.00,WUHU216HW,2013-04-05 01:58:00,
2013-04-04 19:03:00,58.5,55.3,29.68,WSW,248,3.4,6.5,89,0.00,,,0.00,WUHU216HW,2013-04-05 02:03:00,
2013-04-04 19:08:00,58.5,55.3,29.68,West,270,1.8,6.5,89,0.00,,,0.00,WUHU216HW,2013-04-05 02:08:00,
2013-04-04 19:13:00,58.7,55.4,29.68,SW,225,1.8,4.7,89,0.00,,,0.00,WUHU216HW,2013-04-05 02:13:00,
2013-04-04 19:18:00,58.3,55.1,29.68,SW,225,1.8,9.2,89,0.00,,,0.00,WUHU216HW,2013-04-05 02:18:00,
2013-04-04 19:23:00,58.1,54.9,29.68,West,270,1.6,9.2,89,0.00,,,0.00,WUHU216HW,2013-04-05 02:23:00,
2013-04-04 19:28:00,58.0,54.7,29.68,NW,315,3.8,4.9,89,0.00,,,0.00,WUHU216HW,2013-04-05 02:28:00,
2013-04-04 19:33:00,57.6,54.4,29.68,WNW,293,0.9,5.6,89,0.00,,,0.00,WUHU216HW,2013-04-05 02:33:00,
2013-04-04 19:38:00,57.6,54.7,29.68,West,270,1.8,5.6,90,0.00,,,0.00,WUHU216HW,2013-04-05 02:38:00,
2013-04-04 19:43:00,57.4,54.5,29.67,WSW,248,1.1,5.4,90,0.00,,,0.00,WUHU216HW,2013-04-05 02:43:00,
2013-04-04 19:48:00,57.4,54.5,29.68,WNW,293,1.1,4.0,90,0.00,,,0.00,WUHU216HW,2013-04-05 02:48:00,
2013-04-04 19:53:00,57.6,54.7,29.68,WNW,293,3.4,3.4,90,0.00,,,0.00,WUHU216HW,2013-04-05 02:53:00,
2013-04-04 19:58:00,57.6,54.7,29.68,NW,315,2.5,3.8,90,0.00,,,0.00,WUHU216HW,2013-04-05 02:58:00,
2013-04-04 20:03:00,57.4,54.5,29.68,NW,315,2.7,4.7,90,0.00,,,0.00,WUHU216HW,2013-04-05 03:03:00,
2013-04-04 20:08:00,57.4,54.5,29.68,WSW,248,4.3,6.3,90,0.00,,,0.00,WUHU216HW,2013-04-05 03:08:00,
2013-04-04 20:13:00,57.6,54.7,29.69,NNW,338,2.9,6.3,90,0.00,,,0.00,WUHU216HW,2013-04-05 03:13:00,
2013-04-04 20:18:00,57.6,54.7,29.69,NNW,338,2.2,4.9,90,0.00,,,0.00,WUHU216HW,2013-04-05 03:18:00,
2013-04-04 20:23:00,57.8,54.9,29.69,NNW,338,1.8,4.9,90,0.00,,,0.00,WUHU216HW,2013-04-05 03:23:00,
2013-04-04 20:28:00,57.8,54.9,29.69,NW,315,1.8,4.0,90,0.00,,,0.00,WUHU216HW,2013-04-05 03:28:00,
2013-04-04 20:33:00,58.0,55.1,29.70,NW,315,2.5,4.0,90,0.00,,,0.00,WUHU216HW,2013-04-05 03:33:00,
2013-04-04 20:38:00,58.0,55.1,29.70,NNW,338,2.5,3.4,90,0.00,,,0.00,WUHU216HW,2013-04-05 03:38:00,
2013-04-04 20:43:00,58.0,54.7,29.70,NNE,23,2.0,3.4,89,0.00,,,0.00,WUHU216HW,2013-04-05 03:43:00,
2013-04-04 20:48:00,58.0,54.7,29.70,NW,315,0.4,2.5,89,0.00,,,0.00,WUHU216HW,2013-04-05 03:48:00,
2013-04-04 20:53:00,58.1,54.9,29.70,NNE,23,0.9,2.0,89,0.00,,,0.00,WUHU216HW,2013-04-05 03:53:00,
2013-04-04 20:58:00,58.1,54.9,29.70,NNW,338,0.4,1.6,89,0.00,,,0.00,WUHU216HW,2013-04-05 03:58:00,
2013-04-04 21:00:00,58.1,54.9,29.70,NE,45,0.7,1.6,89,0.00,,,0.00,WUHU216HW,2013-04-05 04:00:00,
2013-04-04 21:05:00,58.0,54.7,29.70,NW,315,0.2,1.8,89,0.00,,,0.00,WUHU216HW,2013-04-05 04:05:00,
2013-04-04 21:10:00,58.0,54.7,29.70,NNW,338,0.0,1.8,89,0.00,,,0.00,WUHU216HW,2013-04-05 04:10:00,
2013-04-04 21:15:00,58.0,54.7,29.70,NNW,338,0.0,0.4,89,0.00,,,0.00,WUHU216HW,2013-04-05 04:15:00,
2013-04-04 21:20:00,58.0,54.7,29.71,SE,135,0.7,1.8,89,0.00,,,0.00,WUHU216HW,2013-04-05 04:20:00,
2013-04-04 21:25:00,58.1,54.9,29.71,South,180,0.0,1.8,89,0.00,,,0.00,WUHU216HW,2013-04-05 04:25:00,
2013-04-04 21:30:00,58.1,54.9,29.71,ESE,113,1.1,1.6,89,0.00,,,0.00,WUHU216HW,2013-04-05 04:30:00,
2013-04-04 21:35:00,58.3,55.4,29.71,SSE,158,0.9,1.8,90,0.00,,,0.00,WUHU216HW,2013-04-05 04:35:00,
2013-04-04 21:40:00,58.3,55.4,29.71,ESE,113,1.6,2.7,90,0.00,,,0.00,WUHU216HW,2013-04-05 04:40:00,
2013-04-04 21:45:00,58.5,55.6,29.71,SE,135,2.5,4.7,90,0.00,,,0.00,WUHU216HW,2013-04-05 04:45:00,
2013-04-04 21:50:00,58.7,55.8,29.71,ESE,113,2.9,6.0,90,0.00,,,0.00,WUHU216HW,2013-04-05 04:50:00,
2013-04-04 21:55:00,58.5,55.3,29.71,ENE,68,3.4,6.0,89,0.00,,,0.00,WUHU216HW,2013-04-05 04:55:00,
2013-04-04 22:00:00,58.5,55.3,29.71,East,90,0.4,5.6,89,0.00,,,0.00,WUHU216HW,2013-04-05 05:00:00,
2013-04-04 22:05:00,58.5,55.3,29.72,ESE,113,1.1,4.7,89,0.00,,,0.00,WUHU216HW,2013-04-05 05:05:00,
2013-04-04 22:10:00,58.5,55.3,29.72,ESE,113,2.5,3.6,89,0.00,,,0.00,WUHU216HW,2013-04-05 05:10:00,
2013-04-04 22:15:00,58.5,55.3,29.72,SE,135,2.2,3.6,89,0.00,,,0.00,WUHU216HW,2013-04-05 05:15:00,
2013-04-04 22:20:00,58.7,55.4,29.72,East,90,0.0,2.7,89,0.00,,,0.00,WUHU216HW,2013-04-05 05:20:00,
2013-04-04 22:25:00,58.7,55.4,29.72,ESE,113,3.6,3.6,89,0.00,,,0.00,WUHU216HW,2013-04-05 05:25:00,
2013-04-04 22:30:00,58.7,55.4,29.72,ENE,68,1.6,3.6,89,0.00,,,0.00,WUHU216HW,2013-04-05 05:30:00,
2013-04-04 22:35:00,58.7,55.4,29.73,ESE,113,2.5,3.1,89,0.00,,,0.00,WUHU216HW,2013-04-05 05:35:00,
2013-04-04 22:40:00,58.7,55.4,29.72,SE,135,2.2,3.4,89,0.00,,,0.00,WUHU216HW,2013-04-05 05:40:00,
2013-04-04 22:45:00,58.7,55.4,29.72,SE,135,2.5,3.4,89,0.00,,,0.00,WUHU216HW,2013-04-05 05:45:00,
2013-04-04 22:50:00,58.7,55.4,29.72,East,90,3.4,4.0,89,0.00,,,0.00,WUHU216HW,2013-04-05 05:50:00,
2013-04-04 22:55:00,58.9,55.6,29.72,ESE,113,1.6,4.0,89,0.00,,,0.00,WUHU216HW,2013-04-05 05:55:00,
2013-04-04 23:00:00,58.7,55.2,29.72,East,90,3.1,3.6,88,0.00,,,0.00,WUHU216HW,2013-04-05 06:00:00,
2013-04-04 23:05:00,58.7,55.2,29.72,ESE,113,1.3,6.0,88,0.00,,,0.00,WUHU216HW,2013-04-05 06:05:00,
2013-04-04 23:10:00,58.7,55.2,29.72,ENE,68,1.3,6.0,88,0.00,,,0.00,WUHU216HW,2013-04-05 06:10:00,
2013-04-04 23:15:00,58.7,55.2,29.72,East,90,3.4,4.0,88,0.00,,,0.00,WUHU216HW,2013-04-05 06:15:00,
2013-04-04 23:20:00,58.7,55.2,29.72,East,90,1.8,3.6,88,0.00,,,0.00,WUHU216HW,2013-04-05 06:20:00,
2013-04-04 23:25:00,58.7,55.2,29.72,ENE,68,0.7,5.1,88,0.00,,,0.00,WUHU216HW,2013-04-05 06:25:00,
2013-04-04 23:30:00,58.7,55.2,29.72,ESE,113,1.1,5.1,88,0.00,,,0.00,WUHU216HW,2013-04-05 06:30:00,
2013-04-04 23:35:00,58.7,55.2,29.72,NE,45,2.5,4.7,88,0.00,,,0.00,WUHU216HW,2013-04-05 06:35:00,
2013-04-04 23:40:00,58.7,55.2,29.73,ESE,113,2.5,4.7,88,0.00,,,0.00,WUHU216HW,2013-04-05 06:40:00,
2013-04-04 23:45:00,58.5,55.0,29.72,ESE,113,3.4,3.4,88,0.00,,,0.00,WUHU216HW,2013-04-05 06:45:00,
2013-04-04 23:50:00,58.5,55.0,29.72,East,90,2.0,5.6,88,0.00,,,0.00,WUHU216HW,2013-04-05 06:50:00,
2013-04-04 23:55:00,58.5,55.0,29.72,NNE,23,1.8,5.6,88,0.00,,,0.00,WUHU216HW,2013-04-05 06:55:00,